GW4109 Weather Reports


time (UTC)temp
C
wind
direction
speed
KPH
gust
KPH
rain 1hr
cm
rain 24hr
cm
rain mn
cm
humidity
%
barometer
mb
20260509210137 40 40 3.2 8.0 0.00 0.00 0.00 8 1011.4
20260509205632 39 56 3.2 9.7 0.00 0.00 0.00 9 1011.4
20260509205127 40 89 4.8 12.9 0.00 0.00 0.00 8 1011.5
20260509204623 40 112 3.2 8.0 0.00 0.00 0.00 8 1011.5
20260509204120 39 299 3.2 4.8 0.00 0.00 0.00 8 1011.7
20260509203615 38 123 3.2 14.5 0.00 0.00 0.00 8 1011.7
20260509203109 40 182 1.6 6.4 0.00 0.00 0.00 8 1011.8
20260509202608 39 125 1.6 11.3 0.00 0.00 0.00 8 1012.2
20260509202104 38 118 6.4 8.0 0.00 0.00 0.00 8 1012.1
20260509201604 39 105 6.4 6.4 0.00 0.00 0.00 8 1012.2
20260509201103 39 132 8.0 8.0 0.00 0.00 0.00 8 1012.2
20260509200602 38 323 0.0 6.4 0.00 0.00 0.00 9 1012.2
20260509200053 37 238 4.8 6.4 0.00 0.00 0.00 9 1012.4
20260509195549 38 17 3.2 8.0 0.00 0.00 0.00 8 1012.4
20260509195043 38 235 0.0 6.4 0.00 0.00 0.00 8 1012.4
20260509194538 38 100 4.8 8.0 0.00 0.00 0.00 8 1012.5
20260509194037 37 66 0.0 6.4 0.00 0.00 0.00 8 1012.7
20260509193536 38 234 1.6 8.0 0.00 0.00 0.00 8 1012.7
20260509193033 37 122 4.8 6.4 0.00 0.00 0.00 8 1012.8
20260509192529 37 114 4.8 12.9 0.00 0.00 0.00 8 1012.8
20260509192025 37 29 1.6 6.4 0.00 0.00 0.00 9 1012.8
20260509191519 37 103 9.7 9.7 0.00 0.00 0.00 8 1012.9
20260509191015 37 119 11.3 12.9 0.00 0.00 0.00 8 1013.0
20260509190512 37 116 6.4 9.7 0.00 0.00 0.00 8 1013.0
20260509190010 37 81 3.2 11.3 0.00 0.00 0.00 9 1012.9
20260509185507 37 227 6.4 8.0 0.00 0.00 0.00 8 1013.0
20260509185003 37 190 1.6 4.8 0.00 0.00 0.00 8 1013.0
20260509184502 37 167 1.6 3.2 0.00 0.00 0.00 8 1013.2
20260509183958 37 104 3.2 6.4 0.00 0.00 0.00 8 1013.2
20260509183452 36 73 3.2 11.3 0.00 0.00 0.00 9 1013.3
20260509182949 37 226 0.0 8.0 0.00 0.00 0.00 8 1013.3
20260509182445 37 145 4.8 6.4 0.00 0.00 0.00 8 1013.4
20260509181943 37 195 1.6 6.4 0.00 0.00 0.00 8 1013.3
20260509181441 36 290 3.2 4.8 0.00 0.00 0.00 9 1013.7
20260509180938 36 193 3.2 4.8 0.00 0.00 0.00 8 1013.6
20260509180433 36 120 6.4 9.7 0.00 0.00 0.00 9 1013.7
20260509175931 36 173 0.0 6.4 0.00 0.00 0.00 9 1013.5
20260509175427 35 197 0.0 6.4 0.00 0.00 0.00 9 1013.7
20260509174923 35 124 3.2 6.4 0.00 0.00 0.00 8 1013.6
20260509174419 35 98 4.8 8.0 0.00 0.00 0.00 10 1013.7
20260509173915 36 124 4.8 8.0 0.00 0.00 0.00 9 1013.5
20260509173410 36 78 6.4 9.7 0.00 0.00 0.00 10 1013.7
20260509172906 35 33 1.6 4.8 0.00 0.00 0.00 11 1013.8
20260509172403 35 119 4.8 14.5 0.00 0.00 0.00 11 1013.6
20260509171858 35 304 0.0 4.8 0.00 0.00 0.00 11 1013.6
20260509171354 34 103 0.0 8.0 0.00 0.00 0.00 10 1013.6
20260509170846 35 82 3.2 6.4 0.00 0.00 0.00 11 1013.5
20260509170341 35 93 4.8 4.8 0.00 0.00 0.00 11 1013.7
20260509165836 35 67 4.8 6.4 0.00 0.00 0.00 10 1013.6
20260509165330 35 341 0.0 6.4 0.00 0.00 0.00 12 1013.5
20260509164827 35 124 3.2 4.8 0.00 0.00 0.00 11 1013.5
20260509164323 35 114 3.2 3.2 0.00 0.00 0.00 11 1013.4
20260509163820 34 191 0.0 3.2 0.00 0.00 0.00 11 1013.5
20260509163317 34 21 1.6 6.4 0.00 0.00 0.00 12 1013.6
20260509162816 34 343 3.2 3.2 0.00 0.00 0.00 12 1013.6
20260509162314 33 257 1.6 3.2 0.00 0.00 0.00 11 1013.5
20260509161811 34 84 3.2 4.8 0.00 0.00 0.00 11 1013.6
20260509161307 33 278 3.2 3.2 0.00 0.00 0.00 12 1013.5
20260509160802 33 161 0.0 1.6 0.00 0.00 0.00 12 1013.4
20260509160259 32 46 0.0 6.4 0.00 0.00 0.00 13 1013.5
20260509155754 33 110 0.0 4.8 0.00 0.00 0.00 13 1013.5
20260509155251 33 338 3.2 4.8 0.00 0.00 0.00 13 1013.4
20260509154747 33 87 3.2 3.2 0.00 0.00 0.00 12 1013.5
20260509154244 32 11 0.0 3.2 0.00 0.00 0.00 12 1013.6
20260509153741 32 3 0.0 3.2 0.00 0.00 0.00 14 1013.3
20260509153237 33 110 0.0 1.6 0.00 0.00 0.00 14 1013.5
20260509152734 32 113 0.0 3.2 0.00 0.00 0.00 14 1013.5
20260509152230 33 6 0.0 3.2 0.00 0.00 0.00 16 1013.5
20260509151727 32 73 0.0 3.2 0.00 0.00 0.00 15 1013.6
20260509151224 31 84 3.2 3.2 0.00 0.00 0.00 16 1013.5
20260509150722 31 33 0.0 3.2 0.00 0.00 0.00 19 1013.6
20260509150220 30 349 0.0 3.2 0.00 0.00 0.00 17 1013.3
20260509145716 30 359 3.2 4.8 0.00 0.00 0.00 18 1013.3
20260509145211 30 328 3.2 3.2 0.00 0.00 0.00 16 1013.4
20260509144708 31 34 0.0 3.2 0.00 0.00 0.00 15 1013.4
20260509144205 30 67 0.0 1.6 0.00 0.00 0.00 16 1013.3
20260509143702 29 34 1.6 3.2 0.00 0.00 0.00 16 1013.4
20260509143159 28 75 1.6 3.2 0.00 0.00 0.00 16 1013.2
20260509142655 28 94 3.2 4.8 0.00 0.00 0.00 15 1013.4
20260509142152 28 58 0.0 3.2 0.00 0.00 0.00 14 1013.2
20260509141647 27 125 0.0 1.6 0.00 0.00 0.00 15 1013.1
20260509141144 26 140 0.0 1.6 0.00 0.00 0.00 18 1013.0
20260509140641 26 174 0.0 1.6 0.00 0.00 0.00 19 1012.9
20260509140139 25 224 0.0 1.6 0.00 0.00 0.00 19 1012.9
20260509135636 24 304 0.0 1.6 0.00 0.00 0.00 19 1012.9
20260509135134 23 226 3.2 3.2 0.00 0.00 0.00 18 1012.8
20260509134630 22 278 3.2 4.8 0.00 0.00 0.00 17 1013.1
20260509134128 22 205 3.2 3.2 0.00 0.00 0.00 17 1013.0
20260509133625 21 197 0.0 3.2 0.00 0.00 0.00 17 1013.0
20260509133122 21 198 3.2 3.2 0.00 0.00 0.00 18 1012.9
20260509132620 20 301 0.0 3.2 0.00 0.00 0.00 17 1012.7
20260509132118 19 249 1.6 3.2 0.00 0.00 0.00 19 1012.7
20260509131614 19 222 1.6 3.2 0.00 0.00 0.00 20 1012.7
20260509131111 18 301 1.6 3.2 0.00 0.00 0.00 18 1012.6
20260509130607 18 146 0.0 3.2 0.00 0.00 0.00 20 1012.5
20260509130104 18 244 0.0 3.2 0.00 0.00 0.00 20 1012.4
20260509125600 18 165 0.0 3.2 0.00 0.00 0.00 19 1012.4
20260509125057 19 194 1.6 3.2 0.00 0.00 0.00 18 1012.5
20260509124553 20 271 3.2 3.2 0.00 0.00 0.00 18 1012.4
20260509124051 19 269 0.0 3.2 0.00 0.00 0.00 18 1012.5
20260509123549 18 260 1.6 3.2 0.00 0.00 0.00 19 1012.4
20260509123045 18 266 3.2 4.8 0.00 0.00 0.00 18 1012.4
20260509122541 18 199 0.0 1.6 0.00 0.00 0.00 19 1012.4
20260509122038 18 299 0.0 3.2 0.00 0.00 0.00 19 1012.3
20260509121534 20 252 3.2 6.4 0.00 0.00 0.00 17 1012.1
20260509121032 20 279 3.2 3.2 0.00 0.00 0.00 17 1012.0
20260509120531 20 304 3.2 3.2 0.00 0.00 0.00 16 1012.2
20260509120029 20 139 0.0 3.2 0.00 0.00 0.00 17 1012.0
20260509115525 20 215 1.6 3.2 0.00 0.00 0.00 17 1012.0
20260509115023 19 188 1.6 3.2 0.00 0.00 0.00 18 1012.0
20260509114521 20 240 1.6 4.8 0.00 0.00 0.00 18 1012.0
20260509114020 20 194 0.0 3.2 0.00 0.00 0.00 19 1011.8
20260509113517 18 221 0.0 3.2 0.00 0.00 0.00 20 1012.2
20260509113015 18 258 0.0 3.2 0.00 0.00 0.00 20 1012.2
20260509112511 19 202 0.0 3.2 0.00 0.00 0.00 21 1012.1
20260509112008 20 218 0.0 3.2 0.00 0.00 0.00 22 1012.0
20260509111505 20 210 1.6 3.2 0.00 0.00 0.00 21 1012.1
20260509111002 20 197 0.0 3.2 0.00 0.00 0.00 20 1012.1
20260509110459 20 312 3.2 3.2 0.00 0.00 0.00 20 1012.2
20260509105956 18 193 0.0 3.2 0.00 0.00 0.00 21 1012.1
20260509105455 18 246 3.2 4.8 0.00 0.00 0.00 21 1012.1
20260509104951 18 226 3.2 6.4 0.00 0.00 0.00 21 1012.1
20260509104448 19 305 0.0 3.2 0.00 0.00 0.00 20 1012.2
20260509103946 20 218 0.0 3.2 0.00 0.00 0.00 19 1012.1
20260509103443 20 338 0.0 6.4 0.00 0.00 0.00 19 1012.3
20260509102941 20 157 3.2 3.2 0.00 0.00 0.00 18 1012.1
20260509102438 19 229 3.2 6.4 0.00 0.00 0.00 19 1012.2
20260509101934 20 269 0.0 3.2 0.00 0.00 0.00 20 1012.3
20260509101431 20 331 0.0 3.2 0.00 0.00 0.00 20 1012.2
20260509100928 19 196 1.6 3.2 0.00 0.00 0.00 20 1011.8
20260509100425 19 263 1.6 3.2 0.00 0.00 0.00 20 1012.4
20260509095922 19 243 0.0 3.2 0.00 0.00 0.00 20 1012.3
20260509095419 19 245 1.6 3.2 0.00 0.00 0.00 20 1012.4
20260509094916 20 235 3.2 3.2 0.00 0.00 0.00 21 1012.4
20260509094412 20 269 0.0 0.0 0.00 0.00 0.00 24 1012.4
20260509093910 20 196 0.0 3.2 0.00 0.00 0.00 25 1012.4
20260509093407 20 208 0.0 3.2 0.00 0.00 0.00 26 1012.4
20260509092906 20 185 1.6 3.2 0.00 0.00 0.00 26 1012.4
20260509092403 20 177 0.0 4.8 0.00 0.00 0.00 24 1012.5
20260509091901 20 293 1.6 3.2 0.00 0.00 0.00 23 1012.5
20260509091358 20 229 0.0 3.2 0.00 0.00 0.00 21 1012.6
20260509090855 21 233 0.0 3.2 0.00 0.00 0.00 20 1012.4
20260509090352 21 18 3.2 4.8 0.00 0.00 0.00 19 1012.9
20260509085850 22 66 0.0 1.6 0.00 0.00 0.00 18 1012.7
20260509085347 22 284 3.2 6.4 0.00 0.00 0.00 17 1012.5
20260509084843 22 226 0.0 3.2 0.00 0.00 0.00 17 1012.6
20260509084340 22 222 0.0 3.2 0.00 0.00 0.00 19 1012.7
20260509083838 22 147 1.6 3.2 0.00 0.00 0.00 19 1012.6
20260509083334 22 208 0.0 3.2 0.00 0.00 0.00 18 1012.5
20260509082831 22 176 0.0 3.2 0.00 0.00 0.00 18 1012.7
20260509082327 22 133 0.0 4.8 0.00 0.00 0.00 17 1012.8
20260509081825 22 201 0.0 3.2 0.00 0.00 0.00 17 1012.9
20260509081322 22 117 0.0 1.6 0.00 0.00 0.00 20 1012.7
20260509080820 22 244 1.6 3.2 0.00 0.00 0.00 19 1012.9
20260509080318 22 196 1.6 3.2 0.00 0.00 0.00 19 1013.0
20260509075816 21 174 1.6 3.2 0.00 0.00 0.00 20 1012.8
20260509075313 21 149 0.0 3.2 0.00 0.00 0.00 20 1013.0
20260509074809 22 242 0.0 1.6 0.00 0.00 0.00 21 1013.0
20260509074307 22 255 3.2 4.8 0.00 0.00 0.00 20 1013.0
20260509073803 23 298 1.6 1.6 0.00 0.00 0.00 21 1013.1
20260509073300 23 184 0.0 3.2 0.00 0.00 0.00 23 1013.0
20260509072756 23 227 3.2 3.2 0.00 0.00 0.00 23 1012.9
20260509072253 23 215 1.6 4.8 0.00 0.00 0.00 24 1013.1
20260509071750 23 206 3.2 3.2 0.00 0.00 0.00 27 1013.1
20260509071247 23 194 3.2 3.2 0.00 0.00 0.00 28 1013.3
20260509070744 23 211 1.6 3.2 0.00 0.00 0.00 23 1013.1
20260509070240 23 193 1.6 3.2 0.00 0.00 0.00 21 1013.2
20260509065737 22 213 3.2 3.2 0.00 0.00 0.00 21 1013.2
20260509065233 22 269 0.0 3.2 0.00 0.00 0.00 19 1013.2
20260509064729 23 218 3.2 3.2 0.00 0.00 0.00 19 1013.2
20260509064227 24 124 0.0 3.2 0.00 0.00 0.00 20 1013.3
20260509063724 25 230 0.0 1.6 0.00 0.00 0.00 21 1013.2
20260509063220 24 150 0.0 3.2 0.00 0.00 0.00 21 1013.1
20260509062718 25 235 0.0 3.2 0.00 0.00 0.00 20 1013.3
20260509062215 25 135 0.0 1.6 0.00 0.00 0.00 20 1013.2
20260509061712 25 194 4.8 4.8 0.00 0.00 0.00 17 1013.3
20260509061210 25 141 3.2 3.2 0.00 0.00 0.00 16 1013.4
20260509060707 25 98 1.6 4.8 0.00 0.00 0.00 16 1013.4
20260509060203 25 197 0.0 3.2 0.00 0.00 0.00 17 1013.3
20260509055659 25 217 0.0 3.2 0.00 0.00 0.00 17 1013.4
20260509055155 25 223 3.2 4.8 0.00 0.00 0.00 17 1013.4
20260509054651 26 232 0.0 4.8 0.00 0.00 0.00 16 1013.7
20260509054149 26 240 1.6 6.4 0.00 0.00 0.00 16 1013.5
20260509053647 25 210 0.0 3.2 0.00 0.00 0.00 17 1013.4
20260509053144 25 248 0.0 3.2 0.00 0.00 0.00 16 1013.6
20260509052642 26 174 1.6 4.8 0.00 0.00 0.00 16 1013.6
20260509052139 25 228 1.6 3.2 0.00 0.00 0.00 16 1013.6
20260509051637 25 227 1.6 3.2 0.00 0.00 0.00 16 1013.7
20260509051134 26 231 0.0 3.2 0.00 0.00 0.00 16 1013.8
20260509050631 26 190 0.0 3.2 0.00 0.00 0.00 16 1013.5
20260509050127 26 73 0.0 6.4 0.00 0.00 0.00 15 1013.6
20260509045625 26 141 0.0 3.2 0.00 0.00 0.00 15 1013.5
20260509045121 27 180 1.6 3.2 0.00 0.00 0.00 15 1013.5
20260509044619 27 180 0.0 3.2 0.00 0.00 0.00 15 1013.4
20260509044116 28 174 1.6 3.2 0.00 0.00 0.00 15 1013.5
20260509043612 28 137 3.2 4.8 0.00 0.00 0.00 15 1013.5
20260509043108 28 162 4.8 6.4 0.00 0.00 0.00 15 1013.4
20260509042605 29 62 0.0 4.8 0.00 0.00 0.00 15 1013.3
20260509042100 28 154 3.2 3.2 0.00 0.00 0.00 15 1013.3
20260509041558 28 88 1.6 4.8 0.00 0.00 0.00 15 1013.3
20260509041055 29 85 1.6 4.8 0.00 0.00 0.00 15 1013.2
20260509040553 28 134 1.6 3.2 0.00 0.00 0.00 16 1013.1
20260509040050 28 109 3.2 3.2 0.00 0.00 0.00 15 1013.1
20260509035547 29 77 0.0 4.8 0.00 0.00 0.00 15 1013.1
20260509035043 29 94 1.6 3.2 0.00 0.00 0.00 15 1013.1
20260509034542 30 180 1.6 4.8 0.00 0.00 0.00 14 1013.0
20260509034038 30 76 3.2 3.2 0.00 0.00 0.00 14 1012.8
20260509033536 30 109 3.2 4.8 0.00 0.00 0.00 13 1012.9
20260509033032 31 163 1.6 4.8 0.00 0.00 0.00 13 1012.9
20260509032529 31 155 3.2 6.4 0.00 0.00 0.00 12 1012.8
20260509032027 32 182 1.6 9.7 0.00 0.00 0.00 11 1012.7
20260509031524 31 246 9.7 12.9 0.00 0.00 0.00 12 1012.7
20260509031021 32 248 6.4 16.1 0.00 0.00 0.00 12 1012.7
20260509030519 32 262 4.8 12.9 0.00 0.00 0.00 12 1012.7
20260509030016 31 285 8.0 12.9 0.00 0.00 0.00 12 1012.6
20260509025512 32 246 6.4 9.7 0.00 0.00 0.00 12 1012.5
20260509025007 32 267 1.6 12.9 0.00 0.00 0.00 13 1012.4
20260509024503 32 243 6.4 9.7 0.00 0.00 0.00 12 1012.1
20260509024000 32 236 8.0 19.3 0.00 0.00 0.00 13 1012.3
20260509023458 32 256 9.7 12.9 0.00 0.00 0.00 13 1012.2
20260509022954 32 266 11.3 17.7 0.00 0.00 0.00 13 1012.1
20260509022451 32 257 6.4 9.7 0.00 0.00 0.00 13 1012.4
20260509021949 32 291 6.4 12.9 0.00 0.00 0.00 13 1012.3
20260509021445 32 243 14.5 17.7 0.00 0.00 0.00 12 1012.1
20260509020943 33 265 6.4 14.5 0.00 0.00 0.00 12 1012.1
20260509020441 33 243 16.1 17.7 0.00 0.00 0.00 13 1012.2
20260509015938 33 253 11.3 17.7 0.00 0.00 0.00 13 1012.2
20260509015437 33 288 3.2 8.0 0.00 0.00 0.00 12 1012.1
20260509014933 33 258 6.4 16.1 0.00 0.00 0.00 13 1012.1
20260509014429 33 304 11.3 16.1 0.00 0.00 0.00 12 1012.2
20260509013926 33 287 12.9 17.7 0.00 0.00 0.00 12 1012.0
20260509013423 33 298 9.7 12.9 0.00 0.00 0.00 12 1012.0
20260509012918 34 265 9.7 19.3 0.00 0.00 0.00 12 1011.7
20260509012415 35 306 16.1 17.7 0.00 0.00 0.00 11 1012.1
20260509011913 36 262 11.3 16.1 0.00 0.00 0.00 11 1012.0
20260509011410 36 308 8.0 16.1 0.00 0.00 0.00 11 1012.0
20260509010908 35 312 19.3 25.7 0.00 0.00 0.00 11 1012.0
20260509010405 36 337 4.8 16.1 0.00 0.00 0.00 12 1011.8
20260509005902 36 327 11.3 19.3 0.00 0.00 0.00 11 1011.7
20260509005400 36 306 16.1 24.1 0.00 0.00 0.00 10 1011.8
20260509004900 36 331 19.3 25.7 0.00 0.00 0.00 11 1012.0
20260509004356 36 296 14.5 27.4 0.00 0.00 0.00 11 1011.8
20260509003854 36 323 12.9 27.4 0.00 0.00 0.00 10 1012.0
20260509003351 36 294 9.7 22.5 0.00 0.00 0.00 11 1012.0
20260509002848 36 319 12.9 29.0 0.00 0.00 0.00 11 1012.0
20260509002346 36 329 8.0 20.9 0.00 0.00 0.00 10 1012.0
20260509001844 36 304 20.9 29.0 0.00 0.00 0.00 11 1012.0
20260509001339 36 316 19.3 24.1 0.00 0.00 0.00 11 1011.7
20260509000837 36 311 22.5 35.4 0.00 0.00 0.00 11 1012.0
20260509000335 36 314 17.7 25.7 0.00 0.00 0.00 11 1011.7
20260508235831 36 307 12.9 27.4 0.00 0.00 0.00 12 1011.8
20260508235328 37 329 16.1 25.7 0.00 0.00 0.00 12 1011.8
20260508234825 37 288 11.3 20.9 0.00 0.00 0.00 12 1012.1
20260508234321 36 252 16.1 24.1 0.00 0.00 0.00 12 1012.1
20260508233820 37 290 9.7 29.0 0.00 0.00 0.00 12 1011.8
20260508233319 37 278 14.5 20.9 0.00 0.00 0.00 12 1012.1
20260508232815 37 281 14.5 29.0 0.00 0.00 0.00 12 1012.2
20260508232311 37 293 8.0 20.9 0.00 0.00 0.00 11 1012.0
20260508231810 37 274 14.5 32.2 0.00 0.00 0.00 12 1011.8
20260508231306 37 267 11.3 32.2 0.00 0.00 0.00 12 1012.2
20260508230803 37 278 9.7 29.0 0.00 0.00 0.00 12 1012.0
20260508230259 38 280 9.7 30.6 0.00 0.00 0.00 12 1012.0
20260508225757 37 249 16.1 33.8 0.00 0.00 0.00 12 1012.3
20260508225253 38 263 14.5 25.7 0.00 0.00 0.00 11 1012.3
20260508224751 38 275 12.9 32.2 0.00 0.00 0.00 11 1012.4
20260508224248 38 263 22.5 37.0 0.00 0.00 0.00 10 1012.2
20260508223746 38 247 24.1 27.4 0.00 0.00 0.00 10 1012.4
20260508223243 38 250 30.6 38.6 0.00 0.00 0.00 11 1012.5
20260508222741 38 242 24.1 33.8 0.00 0.00 0.00 11 1012.6
20260508222238 38 288 8.0 32.2 0.00 0.00 0.00 10 1012.5
20260508221734 38 255 14.5 27.4 0.00 0.00 0.00 10 1012.5
20260508221230 38 243 29.0 33.8 0.00 0.00 0.00 11 1012.6
20260508220726 38 282 11.3 25.7 0.00 0.00 0.00 10 1012.5
20260508220223 38 249 24.1 33.8 0.00 0.00 0.00 10 1012.8
20260508215719 38 248 27.4 37.0 0.00 0.00 0.00 10 1012.8
20260508215216 38 245 27.4 30.6 0.00 0.00 0.00 10 1012.8
20260508214713 38 252 32.2 33.8 0.00 0.00 0.00 10 1012.8
20260508214211 40 246 14.5 22.5 0.00 0.00 0.00 10 1012.8
20260508213707 38 260 17.7 24.1 0.00 0.00 0.00 10 1012.9
20260508213203 38 254 14.5 24.1 0.00 0.00 0.00 10 1013.1
20260508212700 38 237 14.5 32.2 0.00 0.00 0.00 11 1013.0
20260508212156 39 240 24.1 25.7 0.00 0.00 0.00 10 1013.0
20260508211652 38 261 24.1 35.4 0.00 0.00 0.00 11 1013.2
20260508211148 39 239 19.3 27.4 0.00 0.00 0.00 11 1013.3
20260508210645 39 265 20.9 27.4 0.00 0.00 0.00 10 1013.5